| time (UTC) | temp C | wind direction | speed KPH | gust KPH | rain 1hr cm | rain 24hr cm | rain mn cm | humidity % | barometer mb |
| 20260903130009 | 10 | 114 | 0.0 | 0.0 | 0.00 | 0.00 | 0.00 | 84 | 1017.1 |
| 20260903125010 | 10 | 114 | 0.0 | 0.0 | 0.00 | 0.00 | 0.00 | 84 | 1017.1 |
| 20260903124009 | 10 | 114 | 0.0 | 0.0 | 0.00 | 0.00 | 0.00 | 84 | 1017.2 |
| 20260903123009 | 10 | 114 | 0.0 | 0.0 | 0.00 | 0.00 | 0.00 | 84 | 1017.1 |
| 20260903121010 | 10 | 114 | 0.0 | 8.0 | 0.00 | 0.00 | 0.00 | 84 | 1017.2 |
| 20260903120009 | 10 | 127 | 0.0 | 0.0 | 0.00 | 0.00 | 0.00 | 84 | 1017.3 |
| 20260903115009 | 10 | 127 | 0.0 | 0.0 | 0.00 | 0.00 | 0.00 | 83 | 1017.4 |
| 20260903114009 | 10 | 127 | 0.0 | 0.0 | 0.00 | 0.00 | 0.00 | 83 | 1017.4 |
| 20260903113009 | 10 | 127 | 0.0 | 0.0 | 0.00 | 0.00 | 0.00 | 83 | 1017.5 |
| 20260903112009 | 10 | 127 | 0.0 | 0.0 | 0.00 | 0.00 | 0.00 | 84 | 1017.7 |
| 20260903111009 | 10 | 127 | 0.0 | 11.3 | 0.00 | 0.00 | 0.00 | 84 | 1017.7 |
| 20260903110009 | 10 | 137 | 0.0 | 4.8 | 0.00 | 0.00 | 0.00 | 85 | 1017.8 |
| 20260903105010 | 10 | 83 | 0.0 | 3.2 | 0.00 | 0.00 | 0.00 | 85 | 1017.8 |
| 20260903104010 | 10 | 78 | 0.0 | 0.0 | 0.00 | 0.00 | 0.00 | 84 | 1017.8 |
| 20260903103010 | 11 | 78 | 0.0 | 0.0 | 0.00 | 0.00 | 0.00 | 83 | 1017.8 |
| 20260903102010 | 11 | 78 | 0.0 | 0.0 | 0.00 | 0.00 | 0.00 | 82 | 1017.8 |
| 20260903101011 | 11 | 78 | 0.0 | 0.0 | 0.00 | 0.00 | 0.00 | 82 | 1017.8 |
| 20260903100009 | 11 | 78 | 0.0 | 0.0 | 0.00 | 0.00 | 0.00 | 83 | 1017.9 |
| 20260903095010 | 11 | 78 | 0.0 | 8.0 | 0.00 | 0.00 | 0.00 | 84 | 1017.9 |
| 20260903094010 | 11 | 143 | 0.0 | 0.0 | 0.00 | 0.00 | 0.00 | 85 | 1017.9 |
| 20260903092010 | 11 | 143 | 0.0 | 0.0 | 0.00 | 0.00 | 0.00 | 86 | 1018.1 |
| 20260903091009 | 11 | 143 | 0.0 | 0.0 | 0.00 | 0.00 | 0.00 | 85 | 1018.1 |
| 20260903090010 | 11 | 143 | 0.0 | 0.0 | 0.00 | 0.00 | 0.00 | 85 | 1018.2 |
| 20260903084010 | 11 | 143 | 0.0 | 0.0 | 0.00 | 0.00 | 0.00 | 84 | 1018.3 |
| 20260903083009 | 11 | 143 | 0.0 | 0.0 | 0.00 | 0.00 | 0.00 | 84 | 1018.3 |
| 20260903082010 | 11 | 143 | 0.0 | 0.0 | 0.00 | 0.00 | 0.00 | 84 | 1018.3 |
| 20260903081010 | 11 | 143 | 0.0 | 0.0 | 0.00 | 0.00 | 0.00 | 84 | 1018.3 |
| 20260903080010 | 11 | 143 | 0.0 | 0.0 | 0.00 | 0.00 | 0.00 | 82 | 1018.4 |
| 20260903075009 | 11 | 143 | 0.0 | 0.0 | 0.00 | 0.00 | 0.00 | 82 | 1018.3 |
| 20260903074010 | 11 | 143 | 0.0 | 0.0 | 0.00 | 0.00 | 0.00 | 81 | 1018.2 |
| 20260903073009 | 12 | 143 | 0.0 | 0.0 | 0.00 | 0.00 | 0.00 | 80 | 1018.2 |
| 20260903072010 | 12 | 143 | 0.0 | 0.0 | 0.00 | 0.00 | 0.00 | 79 | 1018.3 |
| 20260903071010 | 12 | 143 | 0.0 | 0.0 | 0.00 | 0.00 | 0.00 | 78 | 1018.3 |
| 20260903070010 | 12 | 143 | 0.0 | 0.0 | 0.00 | 0.00 | 0.00 | 77 | 1018.4 |
| 20260903065010 | 12 | 143 | 0.0 | 0.0 | 0.00 | 0.00 | 0.00 | 76 | 1018.4 |
| 20260903064010 | 12 | 143 | 0.0 | 0.0 | 0.00 | 0.00 | 0.00 | 75 | 1018.4 |
| 20260903060010 | 13 | 143 | 1.6 | 9.7 | 0.00 | 0.00 | 0.00 | 73 | 1018.6 |
| 20260903055010 | 13 | 277 | 0.0 | 0.0 | 0.00 | 0.00 | 0.00 | 71 | 1018.6 |
| 20260903054010 | 13 | 277 | 0.0 | 0.0 | 0.00 | 0.00 | 0.00 | 71 | 1018.8 |
| 20260903053009 | 13 | 277 | 0.0 | 0.0 | 0.00 | 0.00 | 0.00 | 69 | 1018.9 |
| 20260903052010 | 13 | 277 | 0.0 | 0.0 | 0.00 | 0.00 | 0.00 | 67 | 1018.9 |
| 20260903050009 | 14 | 277 | 0.0 | 0.0 | 0.00 | 0.00 | 0.00 | 64 | 1019.0 |
| 20260903045010 | 15 | 277 | 0.0 | 0.0 | 0.00 | 0.00 | 0.00 | 63 | 1019.0 |
| 20260903044010 | 15 | 277 | 0.0 | 0.0 | 0.00 | 0.00 | 0.00 | 62 | 1019.0 |
| 20260903043010 | 15 | 277 | 0.0 | 0.0 | 0.00 | 0.00 | 0.00 | 61 | 1019.0 |
| 20260903042010 | 16 | 277 | 0.0 | 0.0 | 0.00 | 0.00 | 0.00 | 59 | 1019.0 |
| 20260903041009 | 16 | 277 | 0.0 | 0.0 | 0.00 | 0.00 | 0.00 | 57 | 1019.0 |
| 20260903040009 | 16 | 277 | 0.0 | 0.0 | 0.00 | 0.00 | 0.00 | 56 | 1019.0 |
| 20260903035010 | 16 | 277 | 0.0 | 0.0 | 0.00 | 0.00 | 0.00 | 53 | 1018.9 |
| 20260903034010 | 17 | 277 | 0.0 | 0.0 | 0.00 | 0.00 | 0.00 | 52 | 1018.9 |
| 20260903033009 | 17 | 277 | 0.0 | 0.0 | 0.00 | 0.00 | 0.00 | 50 | 1018.9 |
| 20260903032010 | 18 | 277 | 0.0 | 0.0 | 0.00 | 0.00 | 0.00 | 48 | 1018.9 |
| 20260903031010 | 18 | 277 | 0.0 | 0.0 | 0.00 | 0.00 | 0.00 | 47 | 1018.8 |
| 20260903030010 | 18 | 277 | 0.0 | 0.0 | 0.00 | 0.00 | 0.00 | 46 | 1018.9 |
| 20260903025010 | 19 | 277 | 0.0 | 0.0 | 0.00 | 0.00 | 0.00 | 45 | 1019.0 |
| 20260903024009 | 20 | 277 | 0.0 | 0.0 | 0.00 | 0.00 | 0.00 | 43 | 1019.1 |
| 20260903023010 | 20 | 277 | 0.0 | 0.0 | 0.00 | 0.00 | 0.00 | 41 | 1019.1 |
| 20260903022010 | 20 | 277 | 0.0 | 0.0 | 0.00 | 0.00 | 0.00 | 40 | 1019.1 |
| 20260903021011 | 21 | 277 | 0.0 | 3.2 | 0.00 | 0.00 | 0.00 | 38 | 1019.0 |
| 20260903020009 | 21 | 8 | 0.0 | 0.0 | 0.00 | 0.00 | 0.00 | 37 | 1019.1 |
| 20260903015009 | 21 | 8 | 0.0 | 3.2 | 0.00 | 0.00 | 0.00 | 36 | 1019.0 |
| 20260903014010 | 21 | 8 | 1.6 | 8.0 | 0.00 | 0.00 | 0.00 | 35 | 1019.0 |
| 20260903013010 | 22 | 18 | 0.0 | 0.0 | 0.00 | 0.00 | 0.00 | 34 | 1019.0 |
| 20260903011009 | 22 | 18 | 1.6 | 11.3 | 0.00 | 0.00 | 0.00 | 32 | 1019.0 |
| 20260903005009 | 23 | 254 | 0.0 | 9.7 | 0.00 | 0.00 | 0.00 | 30 | 1019.2 |
| 20260903004009 | 23 | 315 | 1.6 | 11.3 | 0.00 | 0.00 | 0.00 | 29 | 1019.1 |
| 20260903003009 | 23 | 0 | 0.0 | 11.3 | 0.00 | 0.00 | 0.00 | 30 | 1019.2 |
| 20260903002009 | 24 | 285 | 1.6 | 11.3 | 0.00 | 0.00 | 0.00 | 29 | 1019.2 |
| 20260903001010 | 24 | 38 | 0.0 | 12.9 | 0.00 | 0.00 | 0.00 | 29 | 1019.2 |
| 20260903000010 | 24 | 350 | 3.2 | 11.3 | 0.00 | 0.00 | 0.00 | 29 | 1019.2 |
| 20260902235010 | 24 | 268 | 0.0 | 9.7 | 0.00 | 0.00 | 0.00 | 29 | 1019.3 |
| 20260902234009 | 24 | 251 | 3.2 | 14.5 | 0.00 | 0.00 | 0.00 | 29 | 1019.4 |
| 20260902233009 | 24 | 347 | 1.6 | 16.1 | 0.00 | 0.00 | 0.00 | 29 | 1019.3 |
| 20260902232010 | 24 | 299 | 1.6 | 16.1 | 0.00 | 0.00 | 0.00 | 29 | 1019.3 |
| 20260902230009 | 24 | 198 | 4.8 | 12.9 | 0.00 | 0.00 | 0.00 | 30 | 1019.5 |
| 20260902225010 | 23 | 247 | 6.4 | 19.3 | 0.00 | 0.00 | 0.00 | 29 | 1019.6 |
| 20260902222009 | 23 | 38 | 1.6 | 11.3 | 0.00 | 0.00 | 0.00 | 31 | 1019.7 |
| 20260902220010 | 24 | 273 | 4.8 | 14.5 | 0.00 | 0.00 | 0.00 | 30 | 1020.0 |
| 20260902215010 | 24 | 4 | 4.8 | 14.5 | 0.00 | 0.00 | 0.00 | 29 | 1020.1 |
| 20260902214010 | 24 | 216 | 0.0 | 11.3 | 0.00 | 0.00 | 0.00 | 30 | 1020.2 |
| 20260902213010 | 23 | 262 | 4.8 | 11.3 | 0.00 | 0.00 | 0.00 | 31 | 1020.4 |
| 20260902211010 | 23 | 248 | 1.6 | 14.5 | 0.00 | 0.00 | 0.00 | 32 | 1020.3 |
| 20260902205010 | 24 | 191 | 4.8 | 16.1 | 0.00 | 0.00 | 0.00 | 32 | 1020.4 |
| 20260902204010 | 24 | 318 | 6.4 | 14.5 | 0.00 | 0.00 | 0.00 | 32 | 1020.4 |
| 20260902202010 | 24 | 328 | 1.6 | 12.9 | 0.00 | 0.00 | 0.00 | 32 | 1020.5 |
| 20260902201009 | 24 | 296 | 1.6 | 14.5 | 0.00 | 0.00 | 0.00 | 32 | 1020.5 |
| 20260902200011 | 24 | 144 | 1.6 | 11.3 | 0.00 | 0.00 | 0.00 | 31 | 1020.5 |
| 20260902195010 | 24 | 328 | 0.0 | 8.0 | 0.00 | 0.00 | 0.00 | 31 | 1020.5 |
| 20260902194009 | 24 | 145 | 0.0 | 14.5 | 0.00 | 0.00 | 0.00 | 32 | 1020.5 |
| 20260902193009 | 23 | 116 | 1.6 | 14.5 | 0.00 | 0.00 | 0.00 | 34 | 1020.4 |
| 20260902192010 | 23 | 288 | 4.8 | 12.9 | 0.00 | 0.00 | 0.00 | 34 | 1020.5 |
| 20260902190010 | 23 | 0 | 0.0 | 14.5 | 0.00 | 0.00 | 0.00 | 34 | 1020.5 |
| 20260902185010 | 23 | 312 | 8.0 | 16.1 | 0.00 | 0.00 | 0.00 | 35 | 1020.5 |
| 20260902184009 | 23 | 311 | 4.8 | 24.1 | 0.00 | 0.00 | 0.00 | 34 | 1020.6 |
| 20260902183010 | 23 | 260 | 3.2 | 12.9 | 0.00 | 0.00 | 0.00 | 34 | 1020.6 |
| 20260902182009 | 23 | 99 | 3.2 | 16.1 | 0.00 | 0.00 | 0.00 | 35 | 1020.6 |
| 20260902181010 | 22 | 155 | 4.8 | 12.9 | 0.00 | 0.00 | 0.00 | 36 | 1020.6 |
| 20260902180010 | 22 | 256 | 0.0 | 12.9 | 0.00 | 0.00 | 0.00 | 37 | 1020.6 |
| 20260902175009 | 22 | 284 | 3.2 | 14.5 | 0.00 | 0.00 | 0.00 | 36 | 1020.5 |
| 20260902174010 | 22 | 110 | 1.6 | 11.3 | 0.00 | 0.00 | 0.00 | 38 | 1020.5 |
| 20260902173010 | 21 | 172 | 0.0 | 12.9 | 0.00 | 0.00 | 0.00 | 40 | 1020.4 |
| 20260902171010 | 20 | 271 | 4.8 | 14.5 | 0.00 | 0.00 | 0.00 | 42 | 1020.4 |
| 20260902170010 | 20 | 309 | 3.2 | 14.5 | 0.00 | 0.00 | 0.00 | 43 | 1020.3 |
| 20260902165009 | 20 | 281 | 0.0 | 4.8 | 0.00 | 0.00 | 0.00 | 44 | 1020.2 |
| 20260902164009 | 20 | 140 | 0.0 | 0.0 | 0.00 | 0.00 | 0.00 | 45 | 1020.1 |
| 20260902163009 | 19 | 140 | 0.0 | 3.2 | 0.00 | 0.00 | 0.00 | 46 | 1020.0 |
| 20260902162009 | 18 | 121 | 0.0 | 0.0 | 0.00 | 0.00 | 0.00 | 47 | 1019.9 |
| 20260902161010 | 17 | 121 | 0.0 | 8.0 | 0.00 | 0.00 | 0.00 | 50 | 1019.9 |
| 20260902160010 | 16 | 146 | 1.6 | 9.7 | 0.00 | 0.00 | 0.00 | 54 | 1019.9 |
| 20260902155009 | 15 | 140 | 0.0 | 0.0 | 0.00 | 0.00 | 0.00 | 60 | 1019.9 |
| 20260902154009 | 14 | 140 | 1.6 | 8.0 | 0.00 | 0.00 | 0.00 | 65 | 1019.9 |
| 20260902152009 | 12 | 55 | 0.0 | 0.0 | 0.00 | 0.00 | 0.00 | 76 | 1019.9 |
| 20260902151009 | 12 | 55 | 1.6 | 4.8 | 0.00 | 0.00 | 0.00 | 81 | 1019.7 |
| 20260902150010 | 11 | 344 | 0.0 | 0.0 | 0.00 | 0.00 | 0.00 | 89 | 1019.7 |
| 20260902145009 | 10 | 344 | 0.0 | 0.0 | 0.00 | 0.00 | 0.00 | 93 | 1019.6 |
| 20260902144009 | 10 | 344 | 0.0 | 0.0 | 0.00 | 0.00 | 0.00 | 95 | 1019.6 |
| 20260902143009 | 8 | 344 | 0.0 | 0.0 | 0.00 | 0.00 | 0.00 | 96 | 1019.3 |
| 20260902141009 | 8 | 344 | 0.0 | 0.0 | 0.00 | 0.00 | 0.00 | 95 | 1018.9 |
| 20260902140012 | 8 | 344 | 0.0 | 0.0 | 0.00 | 0.00 | 0.00 | 94 | 1019.0 |
| 20260902135009 | 8 | 344 | 0.0 | 0.0 | 0.00 | 0.00 | 0.00 | 94 | 1018.8 |
| 20260902132009 | 8 | 344 | 0.0 | 0.0 | 0.00 | 0.00 | 0.00 | 93 | 1018.4 |